Time,TemperatureF,DewpointF,PressureIn,WindDirection,WindDirectionDegrees,WindSpeedMPH,WindSpeedGustMPH,Humidity,HourlyPrecipIn,Conditions,Clouds,dailyrainin,SolarRadiationWatts/m^2,SoftwareType,DateUTC
2013-01-24 00:01:00,22.0,13.0,-100.00,ENE,75,2.0,5.0,69,0.00,,,0.00,0.000000,,2013-01-24 05:01:00,
2013-01-24 00:33:00,22.0,13.0,-100.00,ENE,75,2.0,5.0,69,0.00,,,0.00,0.000000,,2013-01-24 05:33:00,
2013-01-24 00:43:00,22.0,13.0,-100.00,ENE,75,2.0,5.0,69,0.00,,,0.00,0.000000,,2013-01-24 05:43:00,
2013-01-24 00:53:00,22.0,13.0,-100.00,ENE,75,2.0,5.0,69,0.00,,,0.00,0.000000,,2013-01-24 05:53:00,
2013-01-24 01:01:00,20.0,15.0,-100.00,NE,56,1.0,3.0,81,0.00,,,0.00,0.000000,,2013-01-24 06:01:00,
2013-01-24 01:33:00,20.0,15.0,-100.00,NE,56,1.0,3.0,81,0.00,,,0.00,0.000000,,2013-01-24 06:33:00,
2013-01-24 01:42:00,20.0,15.0,-100.00,NE,56,1.0,3.0,81,0.00,,,0.00,0.000000,,2013-01-24 06:42:00,
2013-01-24 01:53:00,20.0,15.0,-100.00,NE,56,1.0,3.0,81,0.00,,,0.00,0.000000,,2013-01-24 06:53:00,
2013-01-24 02:01:00,20.0,16.0,-100.00,East,88,0.0,4.0,85,0.00,,,0.00,0.000000,,2013-01-24 07:01:00,
2013-01-24 02:23:00,20.0,16.0,-100.00,East,88,0.0,4.0,85,0.00,,,0.00,0.000000,,2013-01-24 07:23:00,
2013-01-24 02:34:00,20.0,16.0,-100.00,East,88,0.0,4.0,85,0.00,,,0.00,0.000000,,2013-01-24 07:34:00,
2013-01-24 02:43:00,20.0,16.0,-100.00,East,88,0.0,4.0,85,0.00,,,0.00,0.000000,,2013-01-24 07:43:00,
2013-01-24 02:53:00,20.0,16.0,-100.00,East,88,0.0,4.0,85,0.00,,,0.00,0.000000,,2013-01-24 07:53:00,
2013-01-24 03:01:00,22.0,18.0,-100.00,ESE,123,2.0,7.0,85,0.00,,,0.00,0.000000,,2013-01-24 08:01:00,
2013-01-24 03:33:00,22.0,18.0,-100.00,ESE,123,2.0,7.0,85,0.00,,,0.00,0.000000,,2013-01-24 08:33:00,
2013-01-24 03:43:00,22.0,18.0,-100.00,ESE,123,2.0,7.0,85,0.00,,,0.00,0.000000,,2013-01-24 08:43:00,
2013-01-24 03:53:00,22.0,18.0,-100.00,ESE,123,2.0,7.0,85,0.00,,,0.00,0.000000,,2013-01-24 08:53:00,
2013-01-24 04:01:00,22.0,13.0,-100.00,NNW,327,4.0,11.0,67,0.00,,,0.00,0.000000,,2013-01-24 09:01:00,
2013-01-24 04:34:00,22.0,13.0,-100.00,NNW,327,4.0,11.0,67,0.00,,,0.00,0.000000,,2013-01-24 09:34:00,
2013-01-24 04:43:00,22.0,13.0,-100.00,NNW,327,4.0,11.0,67,0.00,,,0.00,0.000000,,2013-01-24 09:43:00,
2013-01-24 04:53:00,22.0,13.0,-100.00,NNW,327,4.0,11.0,67,0.00,,,0.00,0.000000,,2013-01-24 09:53:00,
2013-01-24 05:01:00,21.0,9.0,-100.00,WNW,283,3.0,11.0,58,0.00,,,0.00,0.000000,,2013-01-24 10:01:00,
2013-01-24 05:34:00,21.0,9.0,-100.00,WNW,283,3.0,11.0,58,0.00,,,0.00,0.000000,,2013-01-24 10:34:00,
2013-01-24 05:43:00,21.0,9.0,-100.00,WNW,283,3.0,11.0,58,0.00,,,0.00,0.000000,,2013-01-24 10:43:00,
2013-01-24 05:53:00,21.0,9.0,-100.00,WNW,283,3.0,11.0,58,0.00,,,0.00,0.000000,,2013-01-24 10:53:00,
2013-01-24 06:01:00,20.0,11.0,-100.00,WNW,292,4.0,10.0,69,0.00,,,0.00,0.000000,,2013-01-24 11:01:00,
2013-01-24 06:23:00,20.0,11.0,-100.00,WNW,292,4.0,10.0,69,0.00,,,0.00,0.000000,,2013-01-24 11:23:00,
2013-01-24 06:34:00,20.0,11.0,-100.00,WNW,292,4.0,10.0,69,0.00,,,0.00,0.000000,,2013-01-24 11:34:00,
2013-01-24 06:43:00,20.0,11.0,-100.00,WNW,292,4.0,10.0,69,0.00,,,0.00,0.000000,,2013-01-24 11:43:00,
2013-01-24 06:53:00,20.0,11.0,-100.00,WNW,292,4.0,10.0,69,0.00,,,0.00,0.000000,,2013-01-24 11:53:00,
2013-01-24 07:01:00,17.0,7.0,-100.00,NNW,327,7.0,17.0,63,0.00,,,0.00,0.000000,,2013-01-24 12:01:00,
2013-01-24 07:33:00,17.0,7.0,-100.00,NNW,327,7.0,17.0,63,0.00,,,0.00,0.000000,,2013-01-24 12:33:00,
2013-01-24 07:43:00,17.0,7.0,-100.00,NNW,327,7.0,17.0,63,0.00,,,0.00,0.000000,,2013-01-24 12:43:00,
2013-01-24 07:53:00,17.0,7.0,-100.00,NNW,327,7.0,17.0,63,0.00,,,0.00,0.000000,,2013-01-24 12:53:00,
2013-01-24 08:01:00,16.0,4.0,-100.00,NNW,330,7.0,16.0,59,0.00,,,0.00,0.000000,,2013-01-24 13:01:00,
2013-01-24 08:33:00,16.0,4.0,-100.00,NNW,330,7.0,16.0,59,0.00,,,0.00,0.000000,,2013-01-24 13:33:00,
2013-01-24 08:43:00,16.0,4.0,-100.00,NNW,330,7.0,16.0,59,0.00,,,0.00,0.000000,,2013-01-24 13:43:00,
2013-01-24 08:53:00,16.0,4.0,-100.00,NNW,330,7.0,16.0,59,0.00,,,0.00,0.000000,,2013-01-24 13:53:00,
2013-01-24 09:01:00,17.0,2.0,-100.00,NNW,339,9.0,23.0,51,0.00,,,0.00,0.000000,,2013-01-24 14:01:00,
2013-01-24 09:33:00,17.0,2.0,-100.00,NNW,339,9.0,23.0,51,0.00,,,0.00,0.000000,,2013-01-24 14:33:00,
2013-01-24 09:43:00,17.0,2.0,-100.00,NNW,339,9.0,23.0,51,0.00,,,0.00,0.000000,,2013-01-24 14:43:00,
2013-01-24 09:54:00,17.0,2.0,-100.00,NNW,339,9.0,23.0,51,0.00,,,0.00,0.000000,,2013-01-24 14:54:00,
2013-01-24 10:01:00,18.0,-1.0,-100.00,NNW,333,7.0,17.0,42,0.00,,,0.00,0.000000,,2013-01-24 15:01:00,
2013-01-24 10:33:00,18.0,-1.0,-100.00,NNW,333,7.0,17.0,42,0.00,,,0.00,0.000000,,2013-01-24 15:33:00,
2013-01-24 10:43:00,18.0,-1.0,-100.00,NNW,333,7.0,17.0,42,0.00,,,0.00,0.000000,,2013-01-24 15:43:00,
2013-01-24 10:53:00,18.0,-1.0,-100.00,NNW,333,7.0,17.0,42,0.00,,,0.00,0.000000,,2013-01-24 15:53:00,
2013-01-24 11:01:00,19.0,3.0,-100.00,NW,312,5.0,15.0,50,0.00,,,0.00,0.000000,,2013-01-24 16:01:00,
2013-01-24 11:33:00,19.0,3.0,-100.00,NW,312,5.0,15.0,50,0.00,,,0.00,0.000000,,2013-01-24 16:33:00,
2013-01-24 11:43:00,19.0,3.0,-100.00,NW,312,5.0,15.0,50,0.00,,,0.00,0.000000,,2013-01-24 16:43:00,
2013-01-24 12:01:00,20.0,2.0,-100.00,North,350,7.0,20.0,45,0.00,,,0.00,0.000000,,2013-01-24 17:01:00,
2013-01-24 12:33:00,20.0,2.0,-100.00,North,350,7.0,20.0,45,0.00,,,0.00,0.000000,,2013-01-24 17:33:00,
2013-01-24 12:43:00,20.0,2.0,-100.00,North,350,7.0,20.0,45,0.00,,,0.00,0.000000,,2013-01-24 17:43:00,
2013-01-24 12:52:00,20.0,2.0,-100.00,North,350,7.0,20.0,45,0.00,,,0.00,0.000000,,2013-01-24 17:52:00,
2013-01-24 13:01:00,22.0,-1.0,-100.00,NNW,339,7.0,17.0,35,0.00,,,0.00,0.000000,,2013-01-24 18:01:00,
2013-01-24 13:33:00,22.0,-1.0,-100.00,NNW,339,7.0,17.0,35,0.00,,,0.00,0.000000,,2013-01-24 18:33:00,
2013-01-24 13:43:00,22.0,-1.0,-100.00,NNW,339,7.0,17.0,35,0.00,,,0.00,0.000000,,2013-01-24 18:43:00,
2013-01-24 13:53:00,22.0,-1.0,-100.00,NNW,339,7.0,17.0,35,0.00,,,0.00,0.000000,,2013-01-24 18:53:00,
2013-01-24 14:01:00,21.0,-3.0,-100.00,North,7,8.0,17.0,34,0.00,,,0.00,0.000000,,2013-01-24 19:01:00,
2013-01-24 14:22:00,21.0,-3.0,-100.00,North,7,8.0,17.0,34,0.00,,,0.00,0.000000,,2013-01-24 19:22:00,
2013-01-24 14:33:00,21.0,-3.0,-100.00,North,7,8.0,17.0,34,0.00,,,0.00,0.000000,,2013-01-24 19:33:00,
2013-01-24 14:42:00,21.0,-3.0,-100.00,North,7,8.0,17.0,34,0.00,,,0.00,0.000000,,2013-01-24 19:42:00,
2013-01-24 14:53:00,21.0,-3.0,-100.00,North,7,8.0,17.0,34,0.00,,,0.00,0.000000,,2013-01-24 19:53:00,
2013-01-24 15:01:00,21.0,-6.0,-100.00,North,358,5.0,20.0,30,0.00,,,0.00,0.000000,,2013-01-24 20:01:00,
2013-01-24 15:33:00,21.0,-6.0,-100.00,North,358,5.0,20.0,30,0.00,,,0.00,0.000000,,2013-01-24 20:33:00,
2013-01-24 15:43:00,21.0,-6.0,-100.00,North,358,5.0,20.0,30,0.00,,,0.00,0.000000,,2013-01-24 20:43:00,
2013-01-24 15:53:00,21.0,-6.0,-100.00,North,358,5.0,20.0,30,0.00,,,0.00,0.000000,,2013-01-24 20:53:00,
2013-01-24 16:01:00,20.0,-5.0,-100.00,NW,312,5.0,15.0,32,0.00,,,0.00,0.000000,,2013-01-24 21:01:00,
2013-01-24 16:23:00,20.0,-5.0,-100.00,NW,312,5.0,15.0,32,0.00,,,0.00,0.000000,,2013-01-24 21:23:00,
2013-01-24 16:33:00,20.0,-5.0,-100.00,NW,312,5.0,15.0,32,0.00,,,0.00,0.000000,,2013-01-24 21:33:00,
2013-01-24 16:43:00,20.0,-5.0,-100.00,NW,312,5.0,15.0,32,0.00,,,0.00,0.000000,,2013-01-24 21:43:00,
2013-01-24 16:53:00,20.0,-5.0,-100.00,NW,312,5.0,15.0,32,0.00,,,0.00,0.000000,,2013-01-24 21:53:00,
2013-01-24 17:01:00,17.0,-6.0,-100.00,NW,326,3.0,10.0,34,0.00,,,0.00,0.000000,,2013-01-24 22:01:00,
2013-01-24 17:33:00,17.0,-6.0,-100.00,NW,326,3.0,10.0,34,0.00,,,0.00,0.000000,,2013-01-24 22:33:00,
2013-01-24 17:42:00,17.0,-6.0,-100.00,NW,326,3.0,10.0,34,0.00,,,0.00,0.000000,,2013-01-24 22:42:00,
2013-01-24 17:53:00,17.0,-6.0,-100.00,NW,326,3.0,10.0,34,0.00,,,0.00,0.000000,,2013-01-24 22:53:00,
2013-01-24 18:01:00,16.0,-5.0,-100.00,NNE,17,3.0,9.0,39,0.00,,,0.00,0.000000,,2013-01-24 23:01:00,
2013-01-24 18:32:00,16.0,-5.0,-100.00,NNE,17,3.0,9.0,39,0.00,,,0.00,0.000000,,2013-01-24 23:32:00,
2013-01-24 18:42:00,16.0,-5.0,-100.00,NNE,17,3.0,9.0,39,0.00,,,0.00,0.000000,,2013-01-24 23:42:00,
2013-01-24 18:52:00,16.0,-5.0,-100.00,NNE,17,3.0,9.0,39,0.00,,,0.00,0.000000,,2013-01-24 23:52:00,
2013-01-24 19:01:00,15.0,-4.0,-100.00,NW,323,3.0,9.0,41,0.00,,,0.00,0.000000,,2013-01-25 00:01:00,
2013-01-24 19:22:00,15.0,-4.0,-100.00,NW,323,3.0,9.0,41,0.00,,,0.00,0.000000,,2013-01-25 00:22:00,
2013-01-24 19:32:00,15.0,-4.0,-100.00,NW,323,3.0,9.0,41,0.00,,,0.00,0.000000,,2013-01-25 00:32:00,
2013-01-24 19:42:00,15.0,-4.0,-100.00,NW,323,3.0,9.0,41,0.00,,,0.00,0.000000,,2013-01-25 00:42:00,
2013-01-24 19:53:00,15.0,-4.0,-100.00,NW,323,3.0,9.0,41,0.00,,,0.00,0.000000,,2013-01-25 00:53:00,
2013-01-24 20:01:00,14.0,-3.0,-100.00,NNW,327,2.0,7.0,46,0.00,,,0.00,0.000000,,2013-01-25 01:01:00,
2013-01-24 20:32:00,14.0,-3.0,-100.00,NNW,327,2.0,7.0,46,0.00,,,0.00,0.000000,,2013-01-25 01:32:00,
2013-01-24 20:43:00,14.0,-3.0,-100.00,NNW,327,2.0,7.0,46,0.00,,,0.00,0.000000,,2013-01-25 01:43:00,
2013-01-24 20:52:00,14.0,-3.0,-100.00,NNW,327,2.0,7.0,46,0.00,,,0.00,0.000000,,2013-01-25 01:52:00,
2013-01-24 21:01:00,13.0,-4.0,-100.00,NNW,342,1.0,9.0,46,0.00,,,0.00,0.000000,,2013-01-25 02:01:00,
2013-01-24 21:22:00,13.0,-4.0,-100.00,NNW,342,1.0,9.0,46,0.00,,,0.00,0.000000,,2013-01-25 02:22:00,
2013-01-24 21:33:00,13.0,-4.0,-100.00,NNW,342,1.0,9.0,46,0.00,,,0.00,0.000000,,2013-01-25 02:33:00,
2013-01-24 21:43:00,13.0,-4.0,-100.00,NNW,342,1.0,9.0,46,0.00,,,0.00,0.000000,,2013-01-25 02:43:00,
2013-01-24 21:53:00,13.0,-4.0,-100.00,NNW,342,1.0,9.0,46,0.00,,,0.00,0.000000,,2013-01-25 02:53:00,
2013-01-24 22:01:00,12.0,-4.0,-100.00,NNW,334,2.0,7.0,48,0.00,,,0.00,0.000000,,2013-01-25 03:01:00,
2013-01-24 22:33:00,12.0,-4.0,-100.00,NNW,334,2.0,7.0,48,0.00,,,0.00,0.000000,,2013-01-25 03:33:00,
2013-01-24 22:42:00,12.0,-4.0,-100.00,NNW,334,2.0,7.0,48,0.00,,,0.00,0.000000,,2013-01-25 03:42:00,
2013-01-24 22:53:00,12.0,-4.0,-100.00,NNW,334,2.0,7.0,48,0.00,,,0.00,0.000000,,2013-01-25 03:53:00,
2013-01-24 23:01:00,11.0,-4.0,-100.00,West,271,1.0,5.0,49,0.00,,,0.00,0.000000,,2013-01-25 04:01:00,
2013-01-24 23:32:00,11.0,-4.0,-100.00,West,271,1.0,5.0,49,0.00,,,0.00,0.000000,,2013-01-25 04:32:00,
2013-01-24 23:42:00,11.0,-4.0,-100.00,West,271,1.0,5.0,49,0.00,,,0.00,0.000000,,2013-01-25 04:42:00,
2013-01-24 23:52:00,11.0,-4.0,-100.00,West,271,1.0,5.0,49,0.00,,,0.00,0.000000,,2013-01-25 04:52:00,